contact:dominique.lefevre@mio.osupytheas.fr, maurice.libes@osupytheas.fr, didier.mallarino@osupytheas.fr
Project:EMSO http://www.emso-fr.org/EMSO-France
Depth: 2436.0 m
Title:EMSO Ligure Ouest : Data MII capteur CSTAR
DateTime,Latitude,Longitude,Instrument_Serial,Reference_Counts,Signal_Counts,Corrected_Signal_raw_counts,Calculated_Beam_c_inverse_meters,Internal_thermistor_counts
DateTime,Latitude,Longitude,Instrument_Serial,Reference_Counts,Signal_Counts,Corrected_Signal_raw_counts,Calculated_Beam_c_inverse_meters,Internal_thermistor_counts
2021-11-03T00:01:30,42.805,6.029,CST-1368DR,5107,6758,14156,0.393,551
2021-11-03T00:04:32,42.805,6.029,CST-1368DR,5107,6758,14158,0.392,551
2021-11-03T00:07:34,42.805,6.029,CST-1368DR,5107,6756,14153,0.393,551
2021-11-03T00:10:35,42.805,6.029,CST-1368DR,5107,6758,14158,0.392,551
2021-11-03T00:13:37,42.805,6.029,CST-1368DR,5107,6758,14158,0.392,551
2021-11-03T00:16:38,42.805,6.029,CST-1368DR,5107,6759,14159,0.392,551
2021-11-03T00:19:40,42.805,6.029,CST-1368DR,5107,6759,14159,0.392,551
2021-11-03T00:22:42,42.805,6.029,CST-1368DR,5107,6758,14157,0.392,551
2021-11-03T00:25:43,42.805,6.029,CST-1368DR,5107,6757,14154,0.393,551
2021-11-03T00:28:45,42.805,6.029,CST-1368DR,5107,6758,14157,0.392,551
2021-11-03T00:31:46,42.805,6.029,CST-1368DR,5107,6758,14157,0.392,551
2021-11-03T00:34:48,42.805,6.029,CST-1368DR,5107,6758,14156,0.393,551
2021-11-03T00:37:49,42.805,6.029,CST-1368DR,5107,6758,14157,0.392,551
2021-11-03T00:40:51,42.805,6.029,CST-1368DR,5107,6758,14156,0.393,551
2021-11-03T00:43:53,42.805,6.029,CST-1368DR,5107,6756,14153,0.393,551
2021-11-03T00:46:54,42.805,6.029,CST-1368DR,5107,6758,14157,0.392,551
2021-11-03T00:49:56,42.805,6.029,CST-1368DR,5107,6757,14155,0.393,551
2021-11-03T00:52:57,42.805,6.029,CST-1368DR,5107,6758,14157,0.392,551
2021-11-03T00:55:59,42.805,6.029,CST-1368DR,5107,6758,14156,0.393,551
2021-11-03T00:59:00,42.805,6.029,CST-1368DR,5107,6758,14156,0.393,551
2021-11-03T01:02:02,42.805,6.029,CST-1368DR,5107,6757,14156,0.393,551
2021-11-03T01:05:04,42.805,6.029,CST-1368DR,5107,6758,14157,0.392,551
2021-11-03T01:08:05,42.805,6.029,CST-1368DR,5107,6758,14157,0.392,551
2021-11-03T01:11:07,42.805,6.029,CST-1368DR,5107,6757,14154,0.393,551
2021-11-03T01:14:08,42.805,6.029,CST-1368DR,5107,6758,14156,0.393,551
2021-11-03T01:17:10,42.805,6.029,CST-1368DR,5107,6758,14156,0.393,551
2021-11-03T01:20:12,42.805,6.029,CST-1368DR,5107,6757,14155,0.393,551
2021-11-03T01:23:13,42.805,6.029,CST-1368DR,5107,6754,14148,0.395,551
2021-11-03T01:26:15,42.805,6.029,CST-1368DR,5107,6758,14156,0.393,551
2021-11-03T01:29:16,42.805,6.029,CST-1368DR,5107,6757,14156,0.393,551
2021-11-03T01:32:18,42.805,6.029,CST-1368DR,5107,6757,14155,0.393,550
2021-11-03T01:35:19,42.805,6.029,CST-1368DR,5107,6758,14157,0.392,551
2021-11-03T01:38:21,42.805,6.029,CST-1368DR,5107,6758,14157,0.392,551
2021-11-03T01:41:23,42.805,6.029,CST-1368DR,5107,6758,14157,0.392,551
2021-11-03T01:44:24,42.805,6.029,CST-1368DR,5107,6755,14150,0.394,551
2021-11-03T01:47:26,42.805,6.029,CST-1368DR,5107,6757,14155,0.393,551
2021-11-03T01:50:27,42.805,6.029,CST-1368DR,5107,6757,14156,0.393,551
2021-11-03T01:53:29,42.805,6.029,CST-1368DR,5107,6758,14156,0.393,551
2021-11-03T01:56:31,42.805,6.029,CST-1368DR,5107,6758,14156,0.393,551
2021-11-03T01:59:32,42.805,6.029,CST-1368DR,5107,6757,14155,0.393,551
2021-11-03T02:02:34,42.805,6.029,CST-1368DR,5107,6758,14156,0.393,551
2021-11-03T02:05:35,42.805,6.029,CST-1368DR,5107,6757,14156,0.393,551
2021-11-03T02:08:37,42.805,6.029,CST-1368DR,5107,6758,14156,0.393,551
2021-11-03T02:11:38,42.805,6.029,CST-1368DR,5107,6757,14155,0.393,551
2021-11-03T02:14:40,42.805,6.029,CST-1368DR,5107,6757,14156,0.393,551
2021-11-03T02:17:42,42.805,6.029,CST-1368DR,5107,6756,14153,0.393,551
2021-11-03T02:20:43,42.805,6.029,CST-1368DR,5107,6757,14154,0.393,551
2021-11-03T02:23:45,42.805,6.029,CST-1368DR,5107,6757,14155,0.393,551
2021-11-03T02:26:46,42.805,6.029,CST-1368DR,5107,6754,14148,0.395,551
2021-11-03T02:29:48,42.805,6.029,CST-1368DR,5107,6756,14154,0.393,551
2021-11-03T02:32:49,42.805,6.029,CST-1368DR,5107,6757,14155,0.393,551
2021-11-03T02:35:51,42.805,6.029,CST-1368DR,5107,6757,14155,0.393,551
2021-11-03T02:38:53,42.805,6.029,CST-1368DR,5107,6757,14154,0.393,551
2021-11-03T02:41:54,42.805,6.029,CST-1368DR,5107,6757,14155,0.393,551
2021-11-03T02:44:56,42.805,6.029,CST-1368DR,5107,6757,14155,0.393,551
2021-11-03T02:47:57,42.805,6.029,CST-1368DR,5107,6757,14154,0.393,551
2021-11-03T02:50:59,42.805,6.029,CST-1368DR,5107,6756,14154,0.393,551
2021-11-03T02:54:01,42.805,6.029,CST-1368DR,5107,6757,14154,0.393,551
2021-11-03T02:57:02,42.805,6.029,CST-1368DR,5107,6757,14155,0.393,551
2021-11-03T03:00:04,42.805,6.029,CST-1368DR,5107,6755,14151,0.394,551
2021-11-03T03:03:05,42.805,6.029,CST-1368DR,5107,6756,14154,0.393,551
2021-11-03T03:06:07,42.805,6.029,CST-1368DR,5107,6757,14155,0.393,551
2021-11-03T03:09:08,42.805,6.029,CST-1368DR,5107,6757,14155,0.393,551
2021-11-03T03:12:10,42.805,6.029,CST-1368DR,5107,6757,14155,0.393,551
2021-11-03T03:15:12,42.805,6.029,CST-1368DR,5107,6757,14155,0.393,551
2021-11-03T03:18:13,42.805,6.029,CST-1368DR,5107,6757,14154,0.393,551
2021-11-03T03:21:15,42.805,6.029,CST-1368DR,5107,6757,14155,0.393,551
2021-11-03T03:24:16,42.805,6.029,CST-1368DR,5107,6755,14150,0.394,551
2021-11-03T03:27:18,42.805,6.029,CST-1368DR,5107,6756,14153,0.393,551
2021-11-03T03:30:20,42.805,6.029,CST-1368DR,5107,6757,14154,0.393,551
2021-11-03T03:33:21,42.805,6.029,CST-1368DR,5107,6757,14154,0.393,551
2021-11-03T03:36:23,42.805,6.029,CST-1368DR,5107,6757,14154,0.393,551
2021-11-03T03:39:24,42.805,6.029,CST-1368DR,5107,6756,14154,0.393,551
2021-11-03T03:42:26,42.805,6.029,CST-1368DR,5107,6757,14154,0.393,551
2021-11-03T03:45:27,42.805,6.029,CST-1368DR,5107,6756,14152,0.394,551
2021-11-03T03:48:29,42.805,6.029,CST-1368DR,5107,6755,14151,0.394,551
2021-11-03T03:51:31,42.805,6.029,CST-1368DR,5107,6757,14154,0.393,551
2021-11-03T03:54:32,42.805,6.029,CST-1368DR,5107,6755,14151,0.394,551
2021-11-03T03:57:34,42.805,6.029,CST-1368DR,5107,6756,14153,0.393,551
2021-11-03T04:00:35,42.805,6.029,CST-1368DR,5107,6756,14152,0.394,551
2021-11-03T04:03:37,42.805,6.029,CST-1368DR,5107,6756,14152,0.394,551
2021-11-03T04:06:38,42.805,6.029,CST-1368DR,5107,6754,14149,0.395,551
2021-11-03T04:09:40,42.805,6.029,CST-1368DR,5107,6754,14148,0.395,551
2021-11-03T04:12:42,42.805,6.029,CST-1368DR,5107,6753,14147,0.395,551
2021-11-03T04:15:43,42.805,6.029,CST-1368DR,5107,6756,14152,0.394,551
2021-11-03T04:18:45,42.805,6.029,CST-1368DR,5107,6756,14152,0.394,551
2021-11-03T04:21:46,42.805,6.029,CST-1368DR,5107,6755,14151,0.394,551
2021-11-03T04:24:48,42.805,6.029,CST-1368DR,5107,6755,14150,0.394,551
2021-11-03T04:27:50,42.805,6.029,CST-1368DR,5106,6755,14153,0.393,551
2021-11-03T04:30:51,42.805,6.029,CST-1368DR,5107,6755,14151,0.394,551
2021-11-03T04:33:53,42.805,6.029,CST-1368DR,5107,6754,14149,0.395,551
2021-11-03T04:36:54,42.805,6.029,CST-1368DR,5107,6753,14146,0.395,551
2021-11-03T04:39:56,42.805,6.029,CST-1368DR,5107,6754,14148,0.395,551
2021-11-03T04:42:57,42.805,6.029,CST-1368DR,5107,6751,14142,0.397,551
2021-11-03T04:45:59,42.805,6.029,CST-1368DR,5107,6754,14149,0.395,551
2021-11-03T04:49:01,42.805,6.029,CST-1368DR,5107,6754,14149,0.395,551
2021-11-03T04:52:02,42.805,6.029,CST-1368DR,5107,6755,14150,0.394,551
2021-11-03T04:55:04,42.805,6.029,CST-1368DR,5107,6755,14150,0.394,551
2021-11-03T04:58:05,42.805,6.029,CST-1368DR,5107,6753,14147,0.395,551
2021-11-03T05:01:07,42.805,6.029,CST-1368DR,5107,6754,14149,0.395,551
2021-11-03T05:04:08,42.805,6.029,CST-1368DR,5107,6754,14149,0.395,551
2021-11-03T05:07:10,42.805,6.029,CST-1368DR,5106,6754,14152,0.394,551
2021-11-03T05:10:12,42.805,6.029,CST-1368DR,5107,6754,14148,0.395,551
2021-11-03T05:13:13,42.805,6.029,CST-1368DR,5106,6754,14151,0.394,551
2021-11-03T05:16:15,42.805,6.029,CST-1368DR,5107,6754,14149,0.395,551
2021-11-03T05:19:16,42.805,6.029,CST-1368DR,5106,6754,14152,0.394,551
2021-11-03T05:22:18,42.805,6.029,CST-1368DR,5107,6755,14150,0.394,551
2021-11-03T05:25:20,42.805,6.029,CST-1368DR,5107,6755,14150,0.394,550
2021-11-03T05:28:21,42.805,6.029,CST-1368DR,5107,6754,14149,0.395,551
2021-11-03T05:31:23,42.805,6.029,CST-1368DR,5107,6755,14150,0.394,551
2021-11-03T05:34:24,42.805,6.029,CST-1368DR,5106,6754,14151,0.394,551
2021-11-03T05:37:26,42.805,6.029,CST-1368DR,5106,6754,14152,0.394,551
2021-11-03T05:40:27,42.805,6.029,CST-1368DR,5106,6755,14153,0.393,551
2021-11-03T05:43:29,42.805,6.029,CST-1368DR,5107,6755,14150,0.394,551
2021-11-03T05:46:31,42.805,6.029,CST-1368DR,5107,6754,14149,0.395,551
2021-11-03T05:49:32,42.805,6.029,CST-1368DR,5106,6755,14153,0.393,551
2021-11-03T05:52:34,42.805,6.029,CST-1368DR,5107,6754,14149,0.395,551
2021-11-03T05:55:35,42.805,6.029,CST-1368DR,5107,6754,14149,0.395,551
2021-11-03T05:58:37,42.805,6.029,CST-1368DR,5106,6755,14153,0.393,551
2021-11-03T06:01:38,42.805,6.029,CST-1368DR,5106,6754,14152,0.394,551
2021-11-03T06:04:40,42.805,6.029,CST-1368DR,5106,6754,14152,0.394,551
2021-11-03T06:07:42,42.805,6.029,CST-1368DR,5107,6754,14149,0.395,551
2021-11-03T06:10:43,42.805,6.029,CST-1368DR,5107,6755,14150,0.394,551
2021-11-03T06:13:45,42.805,6.029,CST-1368DR,5106,6754,14152,0.394,551
2021-11-03T06:16:46,42.805,6.029,CST-1368DR,5107,6755,14150,0.394,551
2021-11-03T06:19:48,42.805,6.029,CST-1368DR,5106,6755,14154,0.393,551
2021-11-03T06:22:50,42.805,6.029,CST-1368DR,5106,6755,14153,0.393,551
2021-11-03T06:25:51,42.805,6.029,CST-1368DR,5106,6756,14155,0.393,551
2021-11-03T06:28:53,42.805,6.029,CST-1368DR,5106,6755,14154,0.393,551
2021-11-03T06:31:54,42.805,6.029,CST-1368DR,5107,6754,14149,0.395,551
2021-11-03T06:34:56,42.805,6.029,CST-1368DR,5106,6755,14153,0.393,551
2021-11-03T06:37:57,42.805,6.029,CST-1368DR,5106,6755,14153,0.393,551
2021-11-03T06:40:59,42.805,6.029,CST-1368DR,5106,6754,14152,0.394,550
2021-11-03T06:44:01,42.805,6.029,CST-1368DR,5106,6755,14153,0.393,551
2021-11-03T06:47:02,42.805,6.029,CST-1368DR,5106,6755,14153,0.393,551
2021-11-03T06:50:04,42.805,6.029,CST-1368DR,5106,6755,14153,0.393,551
2021-11-03T06:53:05,42.805,6.029,CST-1368DR,5106,6755,14154,0.393,551
2021-11-03T06:56:07,42.805,6.029,CST-1368DR,5106,6755,14154,0.393,551
2021-11-03T06:59:09,42.805,6.029,CST-1368DR,5107,6755,14150,0.394,551
2021-11-03T07:02:10,42.805,6.029,CST-1368DR,5106,6755,14153,0.393,551
2021-11-03T07:05:12,42.805,6.029,CST-1368DR,5106,6754,14152,0.394,551
2021-11-03T07:08:13,42.805,6.029,CST-1368DR,5106,6755,14154,0.393,551
2021-11-03T07:11:15,42.805,6.029,CST-1368DR,5106,6755,14154,0.393,551
2021-11-03T07:14:16,42.805,6.029,CST-1368DR,5106,6755,14153,0.393,550
2021-11-03T07:17:18,42.805,6.029,CST-1368DR,5106,6756,14155,0.393,551
2021-11-03T07:20:20,42.805,6.029,CST-1368DR,5106,6755,14153,0.393,551
2021-11-03T07:23:21,42.805,6.029,CST-1368DR,5106,6755,14154,0.393,551
2021-11-03T07:26:23,42.805,6.029,CST-1368DR,5106,6752,14147,0.395,551
2021-11-03T07:29:24,42.805,6.029,CST-1368DR,5106,6753,14150,0.394,551
2021-11-03T07:32:26,42.805,6.029,CST-1368DR,5106,6754,14152,0.394,551
2021-11-03T07:35:28,42.805,6.029,CST-1368DR,5106,6755,14154,0.393,551
2021-11-03T07:38:29,42.805,6.029,CST-1368DR,5106,6755,14153,0.393,551
2021-11-03T07:41:31,42.805,6.029,CST-1368DR,5106,6755,14153,0.393,551
2021-11-03T07:44:32,42.805,6.029,CST-1368DR,5106,6754,14152,0.394,551
2021-11-03T07:47:34,42.805,6.029,CST-1368DR,5106,6754,14152,0.394,551
2021-11-03T07:50:35,42.805,6.029,CST-1368DR,5106,6754,14152,0.394,551
2021-11-03T07:53:37,42.805,6.029,CST-1368DR,5106,6755,14153,0.393,551
2021-11-03T07:56:39,42.805,6.029,CST-1368DR,5106,6754,14152,0.394,551
2021-11-03T07:59:40,42.805,6.029,CST-1368DR,5106,6755,14153,0.393,551
2021-11-03T08:02:42,42.805,6.029,CST-1368DR,5106,6754,14151,0.394,551
2021-11-03T08:05:43,42.805,6.029,CST-1368DR,5106,6753,14149,0.395,551
2021-11-03T08:08:45,42.805,6.029,CST-1368DR,5106,6754,14150,0.394,551
2021-11-03T08:11:46,42.805,6.029,CST-1368DR,5106,6754,14152,0.394,551
2021-11-03T08:14:48,42.805,6.029,CST-1368DR,5106,6754,14152,0.394,551
2021-11-03T08:17:50,42.805,6.029,CST-1368DR,5106,6750,14142,0.397,551
2021-11-03T08:20:51,42.805,6.029,CST-1368DR,5106,6754,14150,0.394,551
2021-11-03T08:23:53,42.805,6.029,CST-1368DR,5106,6754,14150,0.394,551
2021-11-03T08:26:54,42.805,6.029,CST-1368DR,5106,6754,14152,0.394,551
2021-11-03T08:29:56,42.805,6.029,CST-1368DR,5106,6754,14151,0.394,551
2021-11-03T08:32:58,42.805,6.029,CST-1368DR,5106,6754,14151,0.394,551
2021-11-03T08:35:59,42.805,6.029,CST-1368DR,5106,6754,14151,0.394,551
2021-11-03T08:39:01,42.805,6.029,CST-1368DR,5106,6755,14153,0.393,551
2021-11-03T08:42:02,42.805,6.029,CST-1368DR,5106,6754,14150,0.394,551
2021-11-03T08:45:04,42.805,6.029,CST-1368DR,5106,6754,14151,0.394,551
2021-11-03T08:48:05,42.805,6.029,CST-1368DR,5106,6754,14151,0.394,551
2021-11-03T08:51:07,42.805,6.029,CST-1368DR,5106,6754,14150,0.394,551
2021-11-03T08:54:09,42.805,6.029,CST-1368DR,5106,6754,14150,0.394,551
2021-11-03T08:57:10,42.805,6.029,CST-1368DR,5106,6754,14150,0.394,551
2021-11-03T09:00:12,42.805,6.029,CST-1368DR,5106,6753,14150,0.394,551
2021-11-03T09:03:13,42.805,6.029,CST-1368DR,5106,6754,14151,0.394,551
2021-11-03T09:06:15,42.805,6.029,CST-1368DR,5106,6754,14151,0.394,551
2021-11-03T09:09:17,42.805,6.029,CST-1368DR,5106,6754,14151,0.394,551
2021-11-03T09:12:18,42.805,6.029,CST-1368DR,5106,6753,14149,0.395,551
2021-11-03T09:15:20,42.805,6.029,CST-1368DR,5106,6753,14150,0.394,551
2021-11-03T09:18:21,42.805,6.029,CST-1368DR,5106,6753,14149,0.395,551
2021-11-03T09:21:23,42.805,6.029,CST-1368DR,5106,6754,14150,0.394,551
2021-11-03T09:24:24,42.805,6.029,CST-1368DR,5106,6754,14151,0.394,551
2021-11-03T09:27:26,42.805,6.029,CST-1368DR,5106,6753,14150,0.394,551
2021-11-03T09:30:28,42.805,6.029,CST-1368DR,5106,6753,14150,0.394,551
2021-11-03T09:33:29,42.805,6.029,CST-1368DR,5106,6752,14147,0.395,551
2021-11-03T09:36:31,42.805,6.029,CST-1368DR,5106,6753,14149,0.395,551
2021-11-03T09:39:32,42.805,6.029,CST-1368DR,5106,6754,14150,0.394,551
2021-11-03T09:42:34,42.805,6.029,CST-1368DR,5106,6751,14145,0.396,551
2021-11-03T09:45:36,42.805,6.029,CST-1368DR,5106,6752,14148,0.395,551
2021-11-03T09:48:37,42.805,6.029,CST-1368DR,5106,6754,14151,0.394,551
2021-11-03T09:51:39,42.805,6.029,CST-1368DR,5106,6754,14150,0.394,551
2021-11-03T09:54:40,42.805,6.029,CST-1368DR,5106,6754,14151,0.394,551
2021-11-03T09:57:42,42.805,6.029,CST-1368DR,5106,6754,14151,0.394,551
2021-11-03T10:00:43,42.805,6.029,CST-1368DR,5106,6753,14150,0.394,551
2021-11-03T10:03:45,42.805,6.029,CST-1368DR,5106,6754,14150,0.394,551
2021-11-03T10:06:47,42.805,6.029,CST-1368DR,5106,6753,14149,0.395,551
2021-11-03T10:09:48,42.805,6.029,CST-1368DR,5106,6753,14149,0.395,551
2021-11-03T10:12:50,42.805,6.029,CST-1368DR,5106,6753,14149,0.395,550
2021-11-03T10:15:51,42.805,6.029,CST-1368DR,5106,6752,14148,0.395,551
2021-11-03T10:18:53,42.805,6.029,CST-1368DR,5106,6753,14149,0.395,551
2021-11-03T10:21:55,42.805,6.029,CST-1368DR,5106,6752,14147,0.395,551
2021-11-03T10:24:56,42.805,6.029,CST-1368DR,5106,6753,14148,0.395,551
2021-11-03T10:27:58,42.805,6.029,CST-1368DR,5106,6752,14148,0.395,551
2021-11-03T10:30:59,42.805,6.029,CST-1368DR,5106,6753,14150,0.394,551
2021-11-03T10:34:01,42.805,6.029,CST-1368DR,5106,6752,14147,0.395,551
2021-11-03T10:37:02,42.805,6.029,CST-1368DR,5106,6752,14147,0.395,551
2021-11-03T10:40:04,42.805,6.029,CST-1368DR,5106,6753,14149,0.395,551
2021-11-03T10:43:06,42.805,6.029,CST-1368DR,5106,6753,14149,0.395,551
2021-11-03T10:46:07,42.805,6.029,CST-1368DR,5106,6753,14149,0.395,551
2021-11-03T10:49:09,42.805,6.029,CST-1368DR,5106,6752,14147,0.395,551
2021-11-03T10:52:10,42.805,6.029,CST-1368DR,5106,6751,14146,0.395,550
2021-11-03T10:55:12,42.805,6.029,CST-1368DR,5106,6752,14146,0.395,551
2021-11-03T10:58:14,42.805,6.029,CST-1368DR,5106,6752,14148,0.395,551
2021-11-03T11:01:15,42.805,6.029,CST-1368DR,5106,6752,14147,0.395,551
2021-11-03T11:04:17,42.805,6.029,CST-1368DR,5106,6752,14147,0.395,551
2021-11-03T11:07:18,42.805,6.029,CST-1368DR,5106,6752,14147,0.395,551
2021-11-03T11:10:20,42.805,6.029,CST-1368DR,5106,6752,14147,0.395,551
2021-11-03T11:13:21,42.805,6.029,CST-1368DR,5106,6749,14141,0.397,551
2021-11-03T11:16:23,42.805,6.029,CST-1368DR,5106,6752,14147,0.395,551
2021-11-03T11:19:25,42.805,6.029,CST-1368DR,5106,6752,14146,0.395,551
2021-11-03T11:22:26,42.805,6.029,CST-1368DR,5106,6751,14146,0.395,551
2021-11-03T11:25:28,42.805,6.029,CST-1368DR,5106,6750,14142,0.397,551
2021-11-03T11:28:29,42.805,6.029,CST-1368DR,5106,6752,14147,0.395,551
2021-11-03T11:31:31,42.805,6.029,CST-1368DR,5106,6751,14146,0.395,551
2021-11-03T11:34:32,42.805,6.029,CST-1368DR,5106,6752,14147,0.395,551
2021-11-03T11:37:34,42.805,6.029,CST-1368DR,5106,6751,14145,0.396,551
2021-11-03T11:40:36,42.805,6.029,CST-1368DR,5106,6752,14146,0.395,551
2021-11-03T11:43:37,42.805,6.029,CST-1368DR,5106,6752,14146,0.395,551
2021-11-03T11:46:39,42.805,6.029,CST-1368DR,5106,6752,14147,0.395,551
2021-11-03T11:49:40,42.805,6.029,CST-1368DR,5106,6751,14145,0.396,551
2021-11-03T11:52:42,42.805,6.029,CST-1368DR,5106,6751,14145,0.396,551
2021-11-03T11:55:44,42.805,6.029,CST-1368DR,5106,6751,14145,0.396,551
2021-11-03T11:58:45,42.805,6.029,CST-1368DR,5106,6751,14144,0.396,551
2021-11-03T12:01:47,42.805,6.029,CST-1368DR,5106,6751,14145,0.396,551
2021-11-03T12:04:48,42.805,6.029,CST-1368DR,5106,6751,14146,0.395,551
2021-11-03T12:07:50,42.805,6.029,CST-1368DR,5106,6751,14144,0.396,551
2021-11-03T12:10:51,42.805,6.029,CST-1368DR,5106,6751,14145,0.396,551
2021-11-03T12:13:53,42.805,6.029,CST-1368DR,5106,6751,14144,0.396,551
2021-11-03T12:16:55,42.805,6.029,CST-1368DR,5106,6751,14144,0.396,551
2021-11-03T12:19:56,42.805,6.029,CST-1368DR,5106,6751,14146,0.395,550
2021-11-03T12:22:58,42.805,6.029,CST-1368DR,5106,6751,14146,0.395,551
2021-11-03T12:25:59,42.805,6.029,CST-1368DR,5106,6751,14145,0.396,551
2021-11-03T12:29:01,42.805,6.029,CST-1368DR,5106,6750,14143,0.396,551
2021-11-03T12:32:03,42.805,6.029,CST-1368DR,5106,6751,14144,0.396,551
2021-11-03T12:35:04,42.805,6.029,CST-1368DR,5106,6751,14144,0.396,551
2021-11-03T12:38:06,42.805,6.029,CST-1368DR,5106,6751,14144,0.396,551
2021-11-03T12:41:07,42.805,6.029,CST-1368DR,5106,6750,14144,0.396,551
2021-11-03T12:44:09,42.805,6.029,CST-1368DR,5106,6750,14144,0.396,551
2021-11-03T12:47:10,42.805,6.029,CST-1368DR,5106,6749,14140,0.397,551
2021-11-03T12:50:12,42.805,6.029,CST-1368DR,5106,6750,14144,0.396,551
2021-11-03T12:53:14,42.805,6.029,CST-1368DR,5106,6751,14144,0.396,551
2021-11-03T12:56:15,42.805,6.029,CST-1368DR,5106,6751,14145,0.396,551
2021-11-03T12:59:17,42.805,6.029,CST-1368DR,5106,6750,14144,0.396,551
2021-11-03T13:02:18,42.805,6.029,CST-1368DR,5106,6751,14145,0.396,551
2021-11-03T13:05:20,42.805,6.029,CST-1368DR,5106,6751,14144,0.396,551
2021-11-03T13:08:22,42.805,6.029,CST-1368DR,5106,6750,14143,0.396,551
2021-11-03T13:11:23,42.805,6.029,CST-1368DR,5106,6749,14141,0.397,551
2021-11-03T13:14:25,42.805,6.029,CST-1368DR,5106,6750,14143,0.396,551
2021-11-03T13:17:26,42.805,6.029,CST-1368DR,5106,6748,14139,0.397,551
2021-11-03T13:20:28,42.805,6.029,CST-1368DR,5106,6750,14143,0.396,551
2021-11-03T13:23:29,42.805,6.029,CST-1368DR,5106,6750,14143,0.396,551
2021-11-03T13:26:31,42.805,6.029,CST-1368DR,5106,6748,14139,0.397,551
2021-11-03T13:29:33,42.805,6.029,CST-1368DR,5106,6750,14143,0.396,551
2021-11-03T13:32:34,42.805,6.029,CST-1368DR,5106,6750,14143,0.396,551
2021-11-03T13:35:36,42.805,6.029,CST-1368DR,5106,6750,14143,0.396,551
2021-11-03T13:38:37,42.805,6.029,CST-1368DR,5106,6750,14144,0.396,551
2021-11-03T13:41:39,42.805,6.029,CST-1368DR,5106,6750,14143,0.396,551
2021-11-03T13:44:40,42.805,6.029,CST-1368DR,5106,6750,14142,0.397,551
2021-11-03T13:47:42,42.805,6.029,CST-1368DR,5106,6750,14143,0.396,551
2021-11-03T13:50:44,42.805,6.029,CST-1368DR,5106,6749,14140,0.397,551
2021-11-03T13:53:45,42.805,6.029,CST-1368DR,5106,6749,14140,0.397,551
2021-11-03T13:56:47,42.805,6.029,CST-1368DR,5106,6750,14143,0.396,551
2021-11-03T13:59:48,42.805,6.029,CST-1368DR,5106,6750,14142,0.397,551
2021-11-03T14:02:50,42.805,6.029,CST-1368DR,5106,6749,14141,0.397,551
2021-11-03T14:05:52,42.805,6.029,CST-1368DR,5106,6750,14143,0.396,551
2021-11-03T14:08:53,42.805,6.029,CST-1368DR,5106,6748,14139,0.397,551
2021-11-03T14:11:55,42.805,6.029,CST-1368DR,5106,6749,14141,0.397,551
2021-11-03T14:14:56,42.805,6.029,CST-1368DR,5106,6748,14138,0.398,551
2021-11-03T14:17:58,42.805,6.029,CST-1368DR,5106,6749,14141,0.397,551
2021-11-03T14:20:59,42.805,6.029,CST-1368DR,5106,6746,14135,0.399,551
2021-11-03T14:24:01,42.805,6.029,CST-1368DR,5106,6749,14141,0.397,551
2021-11-03T14:27:03,42.805,6.029,CST-1368DR,5106,6750,14142,0.397,551
2021-11-03T14:30:04,42.805,6.029,CST-1368DR,5106,6747,14136,0.398,551
2021-11-03T14:33:06,42.805,6.029,CST-1368DR,5106,6747,14137,0.398,551
2021-11-03T14:36:07,42.805,6.029,CST-1368DR,5106,6749,14140,0.397,551
2021-11-03T14:39:09,42.805,6.029,CST-1368DR,5106,6748,14139,0.397,551
2021-11-03T14:42:11,42.805,6.029,CST-1368DR,5106,6749,14140,0.397,551
2021-11-03T14:45:12,42.805,6.029,CST-1368DR,5106,6748,14138,0.398,551
2021-11-03T14:48:14,42.805,6.029,CST-1368DR,5106,6748,14139,0.397,551
2021-11-03T14:51:15,42.805,6.029,CST-1368DR,5106,6748,14139,0.397,551
2021-11-03T14:54:17,42.805,6.029,CST-1368DR,5106,6749,14140,0.397,551
2021-11-03T14:57:18,42.805,6.029,CST-1368DR,5106,6748,14139,0.397,551
2021-11-03T15:00:20,42.805,6.029,CST-1368DR,5106,6748,14138,0.398,551
2021-11-03T15:03:22,42.805,6.029,CST-1368DR,5106,6748,14138,0.398,551
2021-11-03T15:06:23,42.805,6.029,CST-1368DR,5105,6748,14142,0.397,551
2021-11-03T15:09:25,42.805,6.029,CST-1368DR,5106,6748,14139,0.397,551
2021-11-03T15:12:26,42.805,6.029,CST-1368DR,5106,6748,14139,0.397,551
2021-11-03T15:15:28,42.805,6.029,CST-1368DR,5106,6748,14139,0.397,551
2021-11-03T15:18:29,42.805,6.029,CST-1368DR,5105,6748,14141,0.397,551
2021-11-03T15:21:31,42.805,6.029,CST-1368DR,5105,6748,14142,0.397,551
2021-11-03T15:24:33,42.805,6.029,CST-1368DR,5105,6748,14142,0.397,551
2021-11-03T15:27:34,42.805,6.029,CST-1368DR,5105,6747,14138,0.398,551
2021-11-03T15:30:36,42.805,6.029,CST-1368DR,5105,6748,14141,0.397,551
2021-11-03T15:33:37,42.805,6.029,CST-1368DR,5105,6748,14141,0.397,551
2021-11-03T15:36:39,42.805,6.029,CST-1368DR,5105,6748,14141,0.397,551
2021-11-03T15:39:41,42.805,6.029,CST-1368DR,5105,6748,14142,0.397,551
2021-11-03T15:42:42,42.805,6.029,CST-1368DR,5105,6748,14142,0.397,551
2021-11-03T15:45:44,42.805,6.029,CST-1368DR,5105,6748,14141,0.397,551
2021-11-03T15:48:45,42.805,6.029,CST-1368DR,5105,6747,14139,0.397,551
2021-11-03T15:51:47,42.805,6.029,CST-1368DR,5106,6748,14138,0.398,551
2021-11-03T15:54:48,42.805,6.029,CST-1368DR,5105,6747,14140,0.397,551
2021-11-03T15:57:50,42.805,6.029,CST-1368DR,5106,6747,14137,0.398,551
2021-11-03T16:00:52,42.805,6.029,CST-1368DR,5105,6747,14140,0.397,551
2021-11-03T16:03:53,42.805,6.029,CST-1368DR,5105,6747,14139,0.397,551
2021-11-03T16:06:55,42.805,6.029,CST-1368DR,5105,6748,14141,0.397,551
2021-11-03T16:09:56,42.805,6.029,CST-1368DR,5105,6748,14141,0.397,551
2021-11-03T16:12:58,42.805,6.029,CST-1368DR,5106,6747,14136,0.398,551
2021-11-03T16:16:00,42.805,6.029,CST-1368DR,5105,6748,14141,0.397,551
2021-11-03T16:19:01,42.805,6.029,CST-1368DR,5105,6748,14141,0.397,550
2021-11-03T16:22:03,42.805,6.029,CST-1368DR,5105,6747,14140,0.397,551
2021-11-03T16:25:04,42.805,6.029,CST-1368DR,5105,6747,14139,0.397,551
2021-11-03T16:28:06,42.805,6.029,CST-1368DR,5105,6747,14139,0.397,551
2021-11-03T16:31:07,42.805,6.029,CST-1368DR,5105,6747,14139,0.397,551
2021-11-03T16:34:09,42.805,6.029,CST-1368DR,5105,6747,14139,0.397,551
2021-11-03T16:37:11,42.805,6.029,CST-1368DR,5105,6747,14140,0.397,551
2021-11-03T16:40:12,42.805,6.029,CST-1368DR,5105,6747,14139,0.397,551
2021-11-03T16:43:14,42.805,6.029,CST-1368DR,5105,6747,14138,0.398,551
2021-11-03T16:46:15,42.805,6.029,CST-1368DR,5105,6746,14136,0.398,551
2021-11-03T16:49:17,42.805,6.029,CST-1368DR,5105,6746,14137,0.398,551
2021-11-03T16:52:18,42.805,6.029,CST-1368DR,5105,6746,14138,0.398,551